Wind_Speed
11 10 9 9 10 9 9 8 8 8 9 8 8 8 9 10 12 11 13 8 6 10 7 10 13 17 18 17 17 13 13 15 15 10 2 6 10 3 1 6 5 4 7 16 22
13 11 8 8 9 10 9 8 8 8 7 8 7 8 7 10 13 19 15 12 11 9 12 14 15 16 15 19 17 14 13 21 3 6 9 4 10 16 7 7 8 10 9 19 22
13 12 9 8 8 9 9 7 7 7 7 7 6 6 5 7 14 7 7 9 13 10 13 15 15 14 17 20 20 17 18 22 6 2 5 11 9 9 13 15 11 16 14 17 21
13 12 9 8 7 7 7 7 7 7 6 5 5 4 4 6 2 7 6 5 7 10 13 13 12 15 17 20 21 20 18 23 6 5 9 11 7 5 11 13 6 8 20 18 18
15 12 10 8 7 6 6 7 7 6 5 4 4 4 2 8 9 2 3 6 10 11 15 13 15 14 17 16 19 21 16 18 13 8 12 9 11 11 10 13 5 6 18 17 17
16 11 9 8 6 5 6 7 7 6 5 5 5 4 6 13 3 1 4 8 8 11 12 12 10 10 14 15 16 18 13 22 14 15 15 14 14 8 15 12 5 8 17 17 18
16 11 9 8 5 3 6 7 7 5 4 5 6 4 10 10 1 3 7 4 7 9 7 11 6 8 9 12 13 11 15 16 19 16 16 13 16 15 16 6 11 11 13 17 17
15 11 8 6 1 5 8 8 7 5 4 4 6 6 7 4 4 7 7 5 6 5 7 4 9 12 12 9 5 14 16 17 21 24 22 18 15 20 17 12 13 15 15 16 19
14 9 6 2 4 8 8 7 5 4 4 6 5 9 7 5 9 11 10 7 7 6 5 5 9 12 10 12 13 13 14 19 17 20 21 20 19 20 17 19 14 14 14 14 16
13 7 3 3 7 9 9 7 5 7 3 6 11 7 8 4 6 10 10 6 7 8 7 10 8 10 12 13 13 11 16 13 11 13 10 15 18 19 21 14 13 16 16 15 18
11 4 1 5 8 9 9 5 6 6 11 9 6 4 5 6 8 12 12 12 8 10 12 13 10 13 16 12 14 12 13 12 12 5 1 13 16 20 23 24 16 16 19 18 18
9 2 4 8 8 11 3 6 8 7 5 6 3 6 1 1 8 10 13 11 9 13 11 6 13 9 3 6 9 12 13 15 13 12 8 13 18 18 20 19 20 18 19 20 19
8 4 7 8 8 7 10 4 3 6 7 7 2 3 12 11 2 10 12 12 9 11 10 14 7 5 3 12 11 13 13 13 14 11 12 15 18 19 19 20 21 23 22 21 22
6 7 11 9 6 9 9 2 8 3 5 11 9 4 9 8 5 4 3 8 10 11 11 11 3 4 10 11 11 13 10 8 10 12 13 13 11 13 15 20 22 22 23 18 19
5 9 15 15 8 8 4 7 5 5 6 7 6 4 6 4 7 5 2 8 13 4 7 5 7 10 10 5 4 12 11 9 13 13 15 17 11 14 15 15 16 12 15 19 22
4 10 14 8 6 5 6 5 4 7 2 6 3 5 9 6 6 4 2 3 5 10 12 14 5 4 10 13 11 11 12 16 17 16 16 19 17 16 16 17 7 10 9 13 17
9 15 13 2 5 6 8 7 7 8 3 5 4 2 7 5 6 8 10 10 6 6 14 13 1 10 9 12 13 12 11 11 14 14 14 17 16 13 7 11 22 21 22 23 24
15 12 5 0 8 7 8 9 10 7 6 3 2 4 3 5 5 4 5 6 13 13 9 7 9 6 6 8 9 13 9 11 17 14 17 21 13 7 5 20 20 20 20 22 24
4 3 3 6 6 5 7 10 5 6 3 2 6 10 6 4 4 6 12 5 10 13 7 6 2 4 5 9 7 8 9 12 12 16 16 17 22 23 19 22 23 23 24 24 23
5 6 6 8 5 8 8 4 4 4 2 6 6 4 5 2 7 4 5 7 4 9 8 6 7 6 8 8 6 6 12 9 9 18 19 16 16 6 16 17 19 22 23 23 23
8 5 8 7 6 7 7 6 6 4 1 5 1 2 3 3 4 4 7 7 6 6 6 8 2 4 7 8 11 11 5 7 8 8 13 16 10 12 14 14 18 21 22 21 22
7 5 10 5 6 3 4 5 4 6 4 3 5 5 3 2 5 4 7 10 5 6 4 6 4 7 7 6 6 10 11 9 7 9 14 13 16 7 2 15 23 23 23 21 23
5 4 8 5 4 4 7 11 7 3 4 2 4 4 1 3 4 10 8 7 7 10 6 7 3 5 11 10 6 6 9 12 11 12 17 15 13 21 28 26 27 27 26 22 24
3 4 4 3 4 11 12 9 8 7 9 7 7 6 7 6 7 9 11 5 8 10 6 6 2 5 7 10 10 10 13 12 10 10 16 17 25 23 27 28 30 28 27 26 24
4 3 4 4 5 6 1 7 10 5 5 2 4 3 9 5 10 10 11 9 4 4 2 4 2 4 5 4 6 8 9 9 11 13 15 21 23 24 28 32 31 31 32 25 25
1 3 5 8 8 8 1 8 9 9 1 3 8 6 3 8 6 9 6 5 5 4 3 1 2 6 11 7 8 9 13 13 18 20 23 27 28 30 30 29 28 27 27 26 27
11 7 2 4 5 7 6 4 9 8 7 6 7 9 12 9 9 7 7 6 6 4 4 2 5 4 4 7 11 9 12 15 18 19 17 14 23 28 32 30 28 23 20 22 23
Wind_Direction
337 325 306 283 268 261 263 264 256 250 242 245 251 261 273 284 286 270 249 250 208 258 242 246 231 231 240 252 256 255 270 255 229 236 329 109 234 155 30 108 135 91 65 120 145
341 331 315 297 272 256 251 256 255 248 239 241 248 260 279 291 280 264 249 247 256 240 222 228 228 226 232 236 244 236 243 252 343 57 339 359 267 157 198 202 159 126 116 130 157
344 336 319 305 287 255 244 244 241 240 232 239 248 260 273 295 269 219 185 234 235 225 232 240 255 239 232 232 234 232 250 256 126 236 318 305 230 185 197 191 201 169 153 155 166
345 339 327 313 294 264 240 230 223 225 222 234 243 250 265 270 306 100 161 251 238 212 228 232 234 234 236 231 231 237 243 262 305 111 245 280 346 233 237 234 128 147 150 163 176
343 343 332 318 294 263 232 219 207 212 213 217 221 214 248 224 258 102 296 248 195 201 217 213 223 230 235 237 233 237 245 250 259 252 253 278 257 251 220 240 107 188 148 171 184
344 343 336 321 297 251 218 206 196 197 197 198 200 203 247 252 62 97 163 153 188 207 217 226 230 249 268 263 245 238 232 255 241 242 238 244 254 184 237 224 188 204 167 181 189
344 340 339 327 304 220 192 185 183 181 190 198 195 206 263 255 160 163 169 196 182 216 229 237 281 244 220 262 250 273 267 265 256 251 249 249 246 255 246 169 184 193 188 184 195
343 339 342 339 275 171 169 168 169 174 181 187 186 237 264 148 209 203 192 181 190 217 277 270 241 258 259 280 260 241 243 247 230 223 233 242 256 228 222 196 223 195 193 197 188
343 339 350 7 152 153 155 152 155 155 159 157 207 228 236 167 198 198 198 199 188 210 226 247 234 239 207 248 238 215 244 231 246 217 219 220 233 256 229 211 221 240 202 209 204
339 336 5 126 144 145 145 150 141 118 165 227 264 249 225 189 135 184 187 187 187 184 186 208 217 225 222 223 240 238 209 228 261 225 214 263 255 241 257 227 217 238 250 232 206
333 324 142 155 153 150 128 131 196 191 215 269 152 302 114 99 157 184 182 199 188 205 222 210 225 221 233 217 281 330 305 303 304 252 314 278 273 249 239 255 217 235 241 243 247
327 272 184 172 171 166 241 257 36 358 248 203 246 254 231 205 155 169 190 210 200 227 209 189 228 261 15 306 268 265 260 260 260 262 282 270 264 257 265 260 260 253 244 250 242
317 219 189 176 178 218 250 15 322 334 252 152 118 165 175 214 94 153 200 224 238 237 207 258 59 44 223 234 240 247 261 275 281 296 222 267 267 261 259 255 254 249 253 255 255
298 207 182 165 183 217 220 237 306 290 254 146 186 107 163 211 130 355 348 289 229 255 237 253 279 198 248 248 258 272 264 290 275 260 259 242 286 268 250 228 232 244 246 254 250
267 197 181 178 319 227 40 321 309 213 228 100 82 146 180 181 124 102 329 243 274 226 247 148 181 215 238 283 20 284 325 284 283 276 279 266 262 259 258 257 259 237 245 253 251
210 176 170 199 251 292 310 313 218 231 171 109 89 182 111 101 54 125 141 285 346 285 252 277 94 305 353 312 285 275 287 274 267 259 254 252 253 267 264 274 244 219 318 332 350
130 143 155 237 310 302 295 234 226 253 158 105 83 117 78 113 75 76 88 66 24 276 221 207 255 98 2 301 251 240 266 275 261 238 244 239 235 252 345 352 51 43 31 22 10
113 123 139 271 303 291 256 234 258 48 37 78 151 177 133 147 91 128 153 102 29 340 295 285 169 354 23 360 322 295 297 286 302 297 308 321 301 350 73 73 63 47 30 19 11
124 166 179 315 310 261 253 236 353 39 19 297 207 211 146 120 164 125 68 58 29 14 338 319 156 86 32 330 336 357 273 342 293 279 272 272 269 256 65 50 33 26 13 7 3
281 210 48 331 296 248 243 34 84 51 318 236 247 285 187 114 197 185 97 30 33 15 338 36 290 86 342 286 215 347 328 307 274 269 268 270 282 56 53 40 24 10 4 360 356
272 232 23 334 269 237 273 70 95 72 13 328 64 144 66 141 12 82 60 71 13 19 12 353 278 334 306 45 343 332 342 352 318 289 291 287 283 81 83 54 15 1 353 352 346
281 247 3 330 216 311 155 120 64 93 109 76 50 56 56 132 93 93 95 46 10 332 36 35 317 297 329 71 34 51 34 2 335 320 318 300 272 320 300 27 2 349 338 339 333
259 19 16 275 231 143 121 110 74 118 40 97 105 50 161 113 121 111 108 60 40 27 25 359 111 282 154 163 152 43 342 333 311 285 274 282 281 320 329 339 341 331 323 325 323
263 207 79 45 26 128 153 136 120 76 66 72 103 109 115 108 88 131 123 82 52 63 343 289 67 355 337 346 344 316 329 329 312 292 304 295 306 317 324 328 325 326 322 316 322
331 57 340 139 98 94 176 142 140 120 93 34 95 139 133 119 109 111 112 128 108 129 141 347 98 323 314 280 301 306 295 322 313 327 318 324 313 319 336 336 330 319 321 327 326
50 122 88 99 119 115 164 98 109 91 42 113 127 124 192 108 30 124 134 129 79 114 57 30 70 297 271 140 291 279 43 358 13 352 329 318 311 340 324 323 316 318 325 330 321
86 97 96 177 122 89 83 90 109 120 62 58 125 127 104 77 60 70 56 74 92 33 61 11 344 324 310 330 273 85 29 16 347 340 13 342 326 343 328 324 315 334 348 331 319
Height
788 786 784 783 782 782 782 781 781 781 780 780 780 780 780 779 778 776 770 766 767 768 769 767 766 763 762 756 748 745 765 759 744 740 734 722 732 721 717 728 733 737 740 745 761
786 784 782 781 780 779 779 779 779 779 779 779 779 779 779 778 777 769 763 764 765 767 768 763 759 758 757 755 748 755 763 746 718 723 733 728 729 724 737 735 738 742 747 753 761
785 782 780 779 778 777 777 777 777 778 778 778 778 779 779 778 772 753 758 761 763 764 766 762 757 752 757 749 748 747 759 727 725 729 733 734 729 714 732 737 728 737 747 753 759
783 780 778 777 775 775 775 775 776 776 777 777 778 778 778 779 767 755 758 760 762 763 764 760 757 759 760 757 742 755 741 731 727 729 738 736 727 728 727 724 708 718 735 748 755
782 779 777 775 774 773 773 774 774 775 776 777 778 778 778 771 758 758 759 758 760 762 757 754 756 753 758 747 741 748 741 733 730 733 734 731 736 732 726 716 715 723 735 745 750
780 777 775 774 772 772 772 773 774 775 776 777 777 778 778 770 757 758 760 759 759 758 754 750 748 744 745 744 742 733 739 737 727 734 732 739 733 730 727 718 723 726 731 740 744
778 775 773 772 771 771 772 773 774 775 775 776 777 778 772 758 758 758 759 757 758 756 753 752 749 751 744 747 734 737 749 740 734 733 736 731 744 738 720 715 725 729 729 734 740
777 774 772 770 770 770 772 773 774 775 775 776 777 780 762 756 758 758 758 758 758 758 757 753 754 748 746 735 745 753 748 761 734 734 731 735 758 730 716 718 727 725 725 730 735
775 773 771 769 770 770 772 774 775 775 776 776 778 775 753 756 755 755 756 755 758 758 758 757 754 750 745 758 758 747 763 752 741 717 727 732 750 724 709 714 724 722 722 724 728
774 772 770 769 771 772 773 774 775 775 777 778 775 772 753 748 751 753 755 756 755 755 756 756 753 757 752 752 767 749 748 743 740 726 724 735 738 726 714 712 722 723 720 718 721
773 771 770 770 771 773 774 776 778 775 770 752 750 750 746 749 752 753 754 754 752 753 758 753 760 759 743 737 736 743 748 749 734 724 738 743 737 728 717 714 716 721 720 718 716
770 770 769 770 772 773 773 761 761 762 754 749 749 749 749 748 750 749 753 753 754 759 746 756 761 735 735 744 752 752 756 753 738 730 739 745 745 730 721 717 713 714 715 714 712
768 768 769 771 773 773 768 762 763 763 759 750 746 743 748 748 745 749 751 748 750 753 747 753 740 741 750 750 758 752 755 751 751 735 737 744 749 738 721 714 710 709 708 707 707
766 766 768 771 775 765 763 764 763 762 758 757 747 748 747 743 757 753 751 751 746 750 742 743 730 746 752 753 746 758 732 739 746 755 763 727 760 726 714 711 710 708 707 704 706
763 764 767 769 769 761 763 762 761 762 772 743 749 747 742 748 753 757 754 749 753 745 751 743 747 750 752 744 740 752 734 746 746 751 750 745 751 731 714 718 710 703 702 700 697
760 762 766 771 769 763 763 762 762 771 772 755 750 752 756 754 757 754 755 751 750 754 746 743 736 746 751 746 743 739 746 746 743 744 762 742 744 736 720 710 699 699 702 703 702
761 763 766 767 760 764 763 759 767 764 745 765 767 755 757 767 771 762 768 774 771 777 760 745 747 747 756 757 735 738 751 767 761 751 751 715 727 719 702 700 710 720 727 729 725
765 766 767 767 765 763 762 759 774 756 763 764 767 761 768 767 777 774 770 778 785 779 764 762 774 764 764 770 770 761 762 773 788 773 748 719 739 717 699 708 719 731 739 742 740
767 766 766 766 764 763 758 761 760 767 775 775 767 768 775 773 771 781 793 794 802 795 790 782 771 766 770 769 766 767 771 765 776 763 766 746 727 706 719 734 742 748 749 750 751
766 760 763 764 762 760 756 782 776 781 780 774 770 771 766 777 773 773 792 809 806 804 794 798 797 774 776 766 763 778 771 781 765 785 782 750 739 754 755 761 764 766 764 761 757
768 755 763 762 760 751 757 768 783 785 784 781 779 782 777 782 776 786 800 816 813 808 801 806 808 778 776 787 796 785 778 791 791 785 782 776 756 738 758 767 772 772 771 770 771
761 757 763 762 757 754 764 776 792 789 786 790 786 786 786 787 791 798 806 816 819 812 812 816 811 807 795 796 795 798 809 811 815 801 794 798 776 736 745 751 769 776 777 776 776
757 757 765 761 761 767 782 788 791 794 794 793 798 794 795 797 808 807 819 825 821 821 828 822 814 805 801 802 804 812 815 817 816 816 818 811 785 748 753 764 774 779 777 775 775
760 762 766 763 762 772 787 791 803 801 802 799 801 797 801 804 802 816 826 830 828 831 840 832 820 821 816 818 819 824 822 821 823 826 811 804 792 787 785 785 782 782 779 774 772
766 782 782 780 779 782 783 788 801 807 808 803 806 800 803 812 812 820 826 832 832 838 832 830 822 828 821 823 826 826 825 824 826 822 825 813 808 803 803 808 805 792 778 774 776
772 780 782 787 787 789 798 795 803 806 803 809 808 809 805 810 810 821 823 822 828 831 831 832 825 828 823 817 821 822 828 831 836 838 834 826 821 825 820 817 812 803 803 794 786
787 786 784 801 791 794 801 804 809 808 815 810 811 811 819 828 823 826 829 832 834 832 834 834 831 826 821 820 813 842 847 844 847 845 865 862 854 842 833 828 818 813 820 812 801